Location: Demonte
(44.3148°N, 7.2945°E)
Time: 05:56:08
(UTC+02:00)

ISS - Visible Passes

Search period start: 26 June 2019 00:00
Search period end: 06 July 2019 00:00
Orbit: 407 x 419 km, 51.6° (Epoch: 26 June)

Date Brightness Start Highest point End Pass type
(mag) Time Alt. Az. Time Alt. Az. Time Alt. Az.
30 Jun -2.1 05:01:00 10° SSW 05:03:45 25° SE 05:06:31 10° E visible
01 Jul -1.5 04:12:54 12° SSE 04:14:23 15° SE 04:16:20 10° E visible
02 Jul -3.6 04:58:03 11° SW 05:01:07 62° SE 05:04:23 10° ENE visible
03 Jul -2.9 04:10:18 25° S 04:11:37 35° SE 04:14:41 10° ENE visible
04 Jul -2.0 03:22:30 21° SE 03:22:30 21° SE 03:24:45 10° E visible
04 Jul -3.4 04:55:20 10° WSW 04:58:36 58° NNW 05:01:53 10° NE visible
05 Jul -3.9 04:07:26 29° WSW 04:08:59 88° SSE 04:12:18 10° ENE visible
